Mullan Pass, ID

11:13 PM PST on November 14, 2019 (GMT -0800)
Mullan Pass

Weather History for KMLP - October, 2019

Change the Weather History Date:

Monday, October 14, 2019

  Actual Average (K3TH) Record (K3TH)
Temperature  
Mean Temperature 32 °F -  
Max Temperature 37 °F 56 °F 63 °F (2002)
Min Temperature 28 °F 35 °F 28 °F (2002)
Degree Days  
Heating Degree Days 32    
Moisture  
Dew Point 27 °F    
Average Humidity 79    
Maximum Humidity 93    
Minimum Humidity 65    
Precipitation  
Precipitation 0.00 in - - ()
Sea Level Pressure  
Sea Level Pressure 29.97 in    
Wind  
Wind Speed 2 mph (West)    
Max Wind Speed 5 mph    
Max Gust Speed -    
Visibility 10 miles    
Events Snow    
Averages and records for this station are not official NWS values.
T = Trace of Precipitation, MM = Missing Value Source: NWS Daily Summary

Daily Weather History Graph

Daily Weather History Graph

Search for Another Location

Airport or City:

Astronomy

Oct. 14, 2019 Rise Set
Actual Time 6:59 AM PDT 5:56 PM PDT
Civil Twilight 6:28 AM PDT 6:27 PM PDT
Nautical Twilight 5:53 AM PDT 7:03 PM PDT
Astronomical Twilight 5:17 AM PDT 7:38 PM PDT
Moon 6:48 PM PDT (10/14) 7:34 AM PDT (10/14)
Length of Visible Light 11h 59m
Length of Day
10h 57m
Full, 99% of the Moon is Illuminated
Oct 14
Full
Oct 21
Last Quarter
Oct 27
New
Nov 4
First Quarter
Nov 12
Full

Hourly Weather History & Observations

Time (PDT) Temp. Windchill Dew Point Humidity Pressure Visibility Wind Dir Wind Speed Gust Speed Precip Events Conditions
12:53 AM 30.9 °F 27.5 °F 28.9 °F 92% 29.78 in 10.0 mi WNW 3.5 mph - N/A   Overcast
1:51 AM 30.2 °F - 28.4 °F 93% 29.90 in 10.0 mi Calm Calm - 0.00 in   Overcast
1:53 AM 30.0 °F - 28.0 °F 92% 29.78 in 10.0 mi Calm Calm - 0.00 in   Overcast
2:53 AM 30.0 °F 26.5 °F 28.0 °F 92% 29.79 in 10.0 mi WNW 3.5 mph - N/A   Overcast
3:53 AM 30.0 °F 26.5 °F 27.0 °F 88% 29.83 in 10.0 mi NW 3.5 mph - N/A   Overcast
4:09 AM 30.0 °F - 27.0 °F 88% 29.92 in 10.0 mi Calm Calm - N/A   Overcast
4:50 AM 30.2 °F - 26.6 °F 86% 29.94 in 7.0 mi Calm Calm - 0.00 in Snow Light Snow
4:53 AM 30.0 °F - 27.0 °F 88% 29.86 in 3.0 mi Calm Calm - 0.00 in Snow Light Snow
5:00 AM 28.9 °F - 27.0 °F 92% 29.94 in 2.5 mi Calm Calm - 0.00 in Snow Light Snow
5:07 AM 30.0 °F 26.5 °F 27.0 °F 88% 29.94 in 9.0 mi SSW 3.5 mph - 0.00 in   Overcast
5:53 AM 30.0 °F - 27.0 °F 88% 29.88 in 10.0 mi Calm Calm - 0.00 in   Overcast
6:53 AM 30.0 °F - 27.0 °F 88% 29.89 in 10.0 mi Calm Calm - 0.00 in   Overcast
7:53 AM 30.9 °F - 27.0 °F 85% 29.91 in 10.0 mi Calm Calm - N/A   Overcast
8:01 AM 30.9 °F 27.5 °F 27.0 °F 85% 29.99 in 10.0 mi Variable 3.5 mph - N/A   Overcast
8:19 AM 32.0 °F - 27.0 °F 82% 29.99 in 10.0 mi Calm Calm - N/A   Overcast
8:41 AM 32.0 °F - 27.0 °F 82% 30.00 in 10.0 mi Calm Calm - N/A   Overcast
8:53 AM 32.0 °F 28.7 °F 27.0 °F 82% 29.92 in 10.0 mi SW 3.5 mph - N/A   Overcast
9:00 AM 32.0 °F 27.5 °F 27.0 °F 82% 30.00 in 10.0 mi SSW 4.6 mph - N/A   Mostly Cloudy
9:13 AM 34.0 °F - 28.0 °F 79% 30.01 in 10.0 mi Calm Calm - N/A   Scattered Clouds
9:53 AM 35.1 °F - 28.0 °F 76% 29.93 in 10.0 mi Calm Calm - N/A   Clear
10:53 AM 35.1 °F 32.2 °F 28.9 °F 78% 29.94 in 10.0 mi NNW 3.5 mph - N/A   Partly Cloudy
11:53 AM 37.0 °F 34.5 °F 26.1 °F 65% 29.95 in 10.0 mi West 3.5 mph - N/A   Mostly Cloudy
12:53 PM 37.9 °F - 27.0 °F 65% 29.95 in 10.0 mi Calm Calm - N/A   Overcast
1:53 PM 37.0 °F - 28.0 °F 70% 29.96 in 10.0 mi Calm Calm - N/A   Mostly Cloudy
2:00 PM 37.0 °F - 28.0 °F 70% 30.05 in 10.0 mi Calm Calm - N/A   Mostly Cloudy
2:33 PM 37.9 °F - 28.0 °F 68% 30.05 in 10.0 mi Calm Calm - N/A   Overcast
2:53 PM 37.0 °F - 28.0 °F 70% 29.97 in 10.0 mi Calm Calm - N/A   Mostly Cloudy
3:09 PM 37.9 °F - 28.0 °F 68% 30.06 in 10.0 mi Calm Calm - N/A   Scattered Clouds
3:53 PM 36.0 °F 33.3 °F 28.0 °F 73% 30.00 in 10.0 mi Variable 3.5 mph - N/A   Overcast
4:30 PM 37.9 °F - 28.9 °F 70% 30.08 in 10.0 mi Calm Calm - N/A   Overcast
4:53 PM 37.0 °F - 28.9 °F 73% 30.01 in 10.0 mi Calm Calm - N/A   Mostly Cloudy
5:01 PM 37.0 °F 34.5 °F 27.0 °F 67% 30.09 in 10.0 mi Variable 3.5 mph - N/A   Mostly Cloudy
5:53 PM 35.1 °F - 27.0 °F 72% 30.02 in 10.0 mi Calm Calm - N/A   Scattered Clouds
6:53 PM 33.1 °F 30.0 °F 26.1 °F 75% 30.03 in 10.0 mi WNW 3.5 mph - N/A   Clear
7:53 PM 34.0 °F 31.0 °F 26.1 °F 73% 30.04 in 10.0 mi WNW 3.5 mph - N/A   Clear
8:53 PM 34.0 °F 31.0 °F 27.0 °F 75% 30.06 in 10.0 mi WNW 3.5 mph - N/A   Clear
9:53 PM 34.0 °F - 26.1 °F 73% 30.06 in 10.0 mi Calm Calm - N/A   Clear
10:53 PM 33.1 °F 30.0 °F 26.1 °F 75% 30.07 in 10.0 mi SE 3.5 mph - N/A   Clear
11:53 PM 33.1 °F 28.7 °F 26.1 °F 75% 30.05 in 10.0 mi SE 4.6 mph - N/A   Clear